Date,TemperatureHighF,TemperatureAvgF,TemperatureLowF,DewpointHighF,DewpointAvgF,DewpointLowF,HumidityHigh,HumidityAvg,HumidityLow,PressureMaxIn,PressureMinIn,WindSpeedMaxMPH,WindSpeedAvgMPH,GustSpeedMaxMPH,PrecipitationSumIn
2013-1-1,32,18,9,14,2,-3,66,49,35,30.39,30.24,8,1,8,0.00
2013-1-2,30,18,7,6,0,-8,50,45,33,30.45,30.36,8,2,8,0.00
2013-1-3,27,13,6,10,-4,-9,61,48,39,30.39,30.21,4,0,4,0.00
2013-1-4,28,16,4,9,0,-10,63,49,41,30.30,30.21,6,0,6,0.00
2013-1-5,34,22,10,18,7,-2,66,53,39,30.27,30.12,7,0,7,0.00
2013-1-6,35,26,18,19,12,6,66,56,42,30.12,29.97,9,0,9,0.00
2013-1-7,40,35,26,21,15,8,53,44,39,30.03,29.83,15,4,15,0.00
2013-1-8,45,41,37,22,16,12,46,37,29,30.09,29.85,15,4,15,0.00
2013-1-9,47,42,33,29,22,16,77,47,29,30.00,29.68,16,4,16,0.12
2013-1-10,33,30,20,27,23,10,80,76,64,29.80,29.65,5,0,13,0.00
2013-1-11,22,15,3,10,0,-12,64,52,43,30.12,29.80,11,0,11,0.00
2013-1-12,18,3,-6,1,-13,-22,49,47,44,30.18,30.09,10,2,10,0.00
2013-1-13,24,5,-4,4,-12,-20,46,44,37,30.24,30.15,6,0,6,0.04
2013-1-14,24,12,-4,4,-4,-20,56,48,42,30.27,30.15,14,2,14,0.00
2013-1-15,32,19,9,15,5,-4,64,54,41,30.42,30.27,6,0,6,0.04
2013-1-16,33,15,6,12,2,-4,64,56,40,30.42,30.36,6,0,6,0.00
2013-1-17,35,16,6,14,2,-7,67,54,40,30.45,30.24,8,0,8,0.00
2013-1-18,58,33,12,18,8,0,67,39,17,30.24,30.12,11,2,11,0.00
2013-1-19,43,26,17,14,7,2,54,44,29,30.30,30.21,6,1,6,0.00
2013-1-20,42,26,17,13,7,1,59,45,30,30.33,30.27,8,1,8,0.00
2013-1-21,38,22,12,14,6,2,66,51,34,30.27,30.15,9,1,9,0.00
2013-1-22,34,19,7,16,5,-3,67,54,37,30.21,30.09,4,0,4,0.00
2013-1-23,41,25,14,25,9,2,63,52,36,30.12,29.94,8,1,8,0.00
2013-1-24,51,39,26,28,19,11,65,46,26,30.15,29.97,16,2,16,0.00
2013-1-25,48,40,31,26,21,14,60,46,37,30.15,29.94,15,4,15,0.00
2013-1-26,43,36,30,28,23,19,69,59,47,29.94,29.83,10,1,10,0.00
2013-1-27,40,30,21,28,16,7,73,57,33,29.91,29.85,8,1,8,0.00
2013-1-28,43,30,24,14,10,6,55,43,29,29.91,29.80,13,4,13,0.00
2013-1-29,38,29,26,24,16,13,72,59,42,30.09,29.80,9,0,9,0.12
2013-1-30,46,36,29,22,19,16,65,49,33,30.12,30.00,11,2,11,0.08
2013-1-31,52,39,34,26,20,17,56,46,32,30.18,30.12,8,1,8,0.00
2013-2-1,54,38,27,25,17,8,64,42,26,30.36,30.09,10,2,10,0.00
2013-2-2,56,34,25,21,14,9,59,45,22,30.42,30.21,11,2,11,0.00
2013-2-3,57,34,20,22,14,8,70,45,20,30.24,30.03,9,1,9,0.00
2013-2-4,45,38,30,20,16,13,58,42,33,30.06,30.00,15,2,15,0.00
2013-2-5,55,40,30,27,19,10,70,45,25,30.00,29.80,14,2,14,0.00
2013-2-6,47,34,23,29,17,7,71,51,29,30.06,29.94,15,2,15,0.00
2013-2-7,42,30,23,17,14,10,61,51,31,30.06,29.88,6,1,6,0.00
2013-2-8,43,32,23,22,16,12,66,52,35,30.00,29.94,9,1,9,0.00
2013-2-9,45,32,28,19,13,7,68,47,28,30.06,29.91,8,1,8,0.00
2013-2-10,43,29,19,23,12,3,69,51,28,30.18,30.06,7,1,7,0.00
2013-2-11,47,29,17,15,8,1,55,42,27,30.15,30.09,11,2,11,0.00
2013-2-12,45,35,23,20,15,8,56,44,31,30.21,30.12,10,1,10,0.00
2013-2-13,46,40,36,22,16,8,51,38,29,30.21,30.06,20,3,20,0.00
2013-2-14,48,37,30,16,12,7,51,36,27,30.39,30.21,11,1,11,0.00
2013-2-15,56,37,26,24,16,11,60,43,25,30.42,30.27,9,1,9,0.00
2013-2-16,61,38,21,29,19,13,74,50,22,30.27,29.85,12,2,12,0.04
2013-2-17,43,34,28,25,16,9,75,50,30,30.06,29.88,10,1,10,0.00
2013-2-18,48,33,20,14,9,3,60,38,22,30.06,29.83,13,2,13,0.00
2013-2-19,50,34,24,21,13,5,64,43,21,29.83,29.68,10,1,10,0.00
2013-2-20,42,32,22,27,16,2,74,54,28,29.94,29.80,9,1,9,0.04
2013-2-21,42,28,13,14,6,-1,55,40,26,30.03,29.94,14,3,14,0.00
2013-2-22,46,35,27,20,14,10,54,41,28,30.00,29.71,17,5,17,0.00
2013-2-23,42,33,24,20,10,1,60,39,26,30.15,29.71,19,3,19,0.00
2013-2-24,46,31,23,13,7,2,47,36,23,30.21,30.12,12,2,12,0.00
2013-2-25,43,31,21,19,12,5,60,45,29,30.12,29.91,14,3,14,0.00
2013-2-26,46,32,21,16,9,0,59,39,25,30.24,30.03,10,2,10,0.00
2013-2-27,52,33,22,13,6,1,47,34,19,30.24,30.18,17,3,17,0.00
2013-2-28,50,37,28,24,16,7,55,42,29,30.33,30.21,11,3,11,0.00
2013-3-1,63,44,32,28,23,18,64,44,24,30.36,30.33,16,2,16,0.00
2013-3-2,65,45,30,32,22,17,70,43,18,30.33,29.97,11,2,11,0.00
2013-3-3,44,37,30,32,15,2,76,45,23,30.09,29.85,20,3,20,0.08
2013-3-4,45,30,18,19,8,0,69,42,22,30.27,30.09,11,1,11,0.08
2013-3-5,48,29,14,15,8,2,61,43,24,30.15,29.91,8,1,8,0.00
2013-3-6,52,35,26,27,18,10,69,50,31,29.91,29.74,19,1,19,0.00
2013-3-7,53,39,24,21,13,4,54,35,18,30.06,29.85,10,3,11,0.00
2013-3-8,49,32,18,20,10,5,63,42,22,30.06,29.94,10,2,10,0.00
2013-3-9,55,35,20,19,11,6,56,39,20,30.36,30.06,13,2,13,0.00
2013-3-10,59,39,21,17,12,6,57,36,17,30.39,30.18,15,3,15,0.00
2013-3-11,55,41,29,24,12,1,64,34,18,30.24,30.18,15,3,15,0.00
2013-3-12,60,44,28,24,16,4,41,33,24,30.24,30.12,15,4,15,0.00
2013-3-13,70,51,37,25,19,15,45,31,15,30.24,30.18,16,2,16,0.00
2013-3-14,73,50,33,27,19,12,54,32,14,30.21,30.06,14,2,14,0.00
2013-3-15,62,50,36,25,18,11,44,28,19,30.15,30.06,14,3,14,0.00
2013-3-16,58,43,31,28,19,14,71,39,22,30.12,29.80,15,2,15,0.00
2013-3-17,42,34,28,29,13,4,75,44,30,30.06,29.74,23,4,23,0.04
2013-3-18,46,33,28,21,11,4,71,41,20,30.12,30.00,18,5,18,0.00
2013-3-19,56,34,15,21,12,4,70,42,17,30.30,30.03,12,2,12,0.04
2013-3-20,58,40,26,30,21,11,73,49,27,30.03,29.65,17,4,17,0.08
2013-3-21,42,33,24,26,12,1,74,43,23,30.03,29.85,20,4,20,0.08
2013-3-22,42,28,20,16,10,6,60,48,29,30.21,30.03,12,2,12,0.08
2013-3-23,45,26,13,17,8,2,67,49,23,30.30,30.21,11,2,11,0.08
2013-3-24,46,30,17,13,6,-3,60,39,19,30.36,30.21,8,1,8,0.00
2013-3-25,56,34,14,13,7,0,57,35,17,30.21,30.06,9,1,9,0.00
2013-3-26,63,41,24,22,14,7,56,36,16,30.06,30.00,8,1,9,0.00
2013-3-27,66,42,26,28,18,10,65,41,18,30.09,30.00,8,1,8,0.00
2013-3-28,65,44,28,31,25,20,73,49,23,30.18,30.09,16,2,16,0.00
2013-3-29,60,44,33,32,26,21,69,50,26,30.27,30.18,10,1,10,0.00
2013-3-30,67,47,31,32,21,11,68,39,17,30.33,30.18,9,2,9,0.00
2013-3-31,68,46,25,29,17,13,65,37,15,30.21,30.03,8,1,8,0.00
2013-4-1,69,48,28,30,21,16,67,38,17,30.12,30.00,9,1,9,0.00
2013-4-2,71,50,30,30,22,16,69,36,17,30.15,30.06,13,2,13,0.00
2013-4-3,72,51,37,33,23,19,58,36,16,30.21,30.12,12,2,12,0.00
2013-4-4,73,51,34,35,27,22,67,42,19,30.15,29.91,18,2,18,0.00
2013-4-5,63,48,35,36,28,21,65,47,23,30.03,29.91,15,3,15,0.00
2013-4-6,58,46,38,33,26,18,67,48,30,30.03,29.94,13,3,13,0.04
2013-4-7,56,42,33,42,24,14,73,51,26,29.97,29.74,16,2,16,0.04
2013-4-8,44,36,28,23,12,1,63,38,25,30.24,29.85,16,4,16,0.00
2013-4-9,54,34,14,14,6,-4,51,32,18,30.39,30.24,11,2,11,0.00
2013-4-10,59,44,0,33,21,0,72,40,26,30.27,29.94,16,3,16,0.00
2013-4-11,55,44,34,33,17,8,74,35,23,30.15,30.03,14,3,14,0.00
2013-4-12,62,43,24,22,13,8,58,34,16,30.15,29.77,17,3,17,0.00
2013-4-13,50,39,30,28,18,8,68,43,21,29.88,29.68,19,5,19,0.00
2013-4-14,47,36,26,25,17,11,71,48,27,29.97,29.88,13,3,13,0.00
2013-4-15,43,34,26,15,5,-1,52,30,23,30.12,29.94,15,4,15,0.00
2013-4-16,43,31,15,6,2,-6,43,29,20,30.30,30.12,14,3,14,0.00
2013-4-17,50,32,12,11,3,-5,49,30,19,30.39,30.27,10,2,10,0.00
2013-4-18,57,40,21,16,9,0,44,29,18,30.33,30.27,14,3,14,0.00
2013-4-19,61,48,37,25,20,11,47,33,24,30.27,30.00,13,2,13,0.00
2013-4-20,62,47,38,26,22,18,54,38,21,30.18,30.03,23,2,23,0.00
2013-4-21,61,44,27,26,21,14,77,44,19,30.27,30.06,19,3,19,0.00
2013-4-22,48,33,21,16,8,3,60,37,19,30.45,30.24,11,2,11,0.04
2013-4-23,57,38,19,16,11,5,58,36,18,30.42,30.24,9,2,9,0.00
2013-4-24,65,44,22,20,13,6,58,32,16,30.36,30.09,13,2,13,0.00
2013-4-25,70,51,32,23,15,9,46,27,14,30.18,30.03,15,3,15,0.00
2013-4-26,76,54,32,26,20,13,51,28,14,30.27,30.18,15,3,15,0.00
2013-4-27,74,59,41,26,21,14,46,26,13,30.27,30.09,24,4,24,0.00
2013-4-28,66,55,48,26,21,12,37,26,18,30.18,30.00,18,4,18,0.00
2013-4-29,52,44,32,38,22,12,71,44,21,30.03,29.83,25,4,25,0.08
2013-4-30,51,37,24,19,11,5,62,35,19,30.36,30.00,12,3,12,0.00
2013-5-1,59,40,24,28,14,6,72,41,17,30.62,30.36,9,1,9,0.00
2013-5-2,73,47,22,21,14,8,57,31,14,30.65,30.33,15,2,15,0.00
2013-5-3,63,49,41,37,23,13,73,38,24,30.36,30.30,8,1,8,0.04
2013-5-4,60,51,43,36,25,20,74,38,25,30.33,30.21,13,2,13,0.00
2013-5-5,74,53,31,35,24,17,69,36,16,30.24,30.03,10,2,10,0.00
2013-5-6,83,58,34,32,24,15,65,32,13,30.12,29.94,9,1,9,0.00
2013-5-7,82,61,36,31,24,18,54,28,14,30.12,29.97,15,3,15,0.00
2013-5-8,85,62,38,33,25,17,56,28,13,30.21,30.12,17,2,17,0.00
2013-5-9,83,60,39,43,28,23,57,33,14,30.27,30.18,9,1,9,0.00
2013-5-10,88,63,41,37,29,19,64,32,13,30.36,30.24,8,1,8,0.00
2013-5-11,91,65,42,34,28,23,53,29,12,30.36,30.21,13,2,13,0.00
2013-5-12,96,71,49,36,30,24,46,25,11,30.27,30.12,12,2,15,0.00
2013-5-13,90,67,48,43,33,24,63,33,12,30.18,29.88,20,4,20,0.00
2013-5-14,76,60,43,26,21,15,45,24,13,30.21,30.09,13,2,13,0.00
2013-5-15,71,53,34,32,23,17,59,34,17,30.21,30.03,15,1,15,0.00
2013-5-16,66,52,41,42,31,24,73,48,25,30.09,30.03,6,0,6,0.00
2013-5-17,50,46,43,40,33,28,71,59,46,30.06,30.03,4,0,4,0.08
2013-5-19,59,55,50,30,27,23,46,35,25,30.36,30.33,5,0,5,0.08
2013-5-20,77,58,37,39,28,20,67,36,15,30.39,30.18,8,1,8,0.08
2013-5-21,81,60,39,38,28,22,66,35,14,30.18,29.83,13,2,13,0.08
2013-5-22,68,50,41,46,34,26,74,56,24,30.15,29.85,9,0,9,0.12
2013-5-23,64,50,38,30,23,15,67,39,19,30.15,30.06,8,1,8,0.08
2013-5-24,67,52,34,26,22,18,59,33,17,30.24,30.09,21,3,21,0.08
2013-5-25,71,51,33,30,24,17,63,37,19,30.21,30.15,7,1,7,0.08
2013-5-26,70,51,33,38,28,20,70,43,22,30.21,30.09,12,2,12,0.08
2013-5-27,74,56,44,43,33,25,73,46,18,30.18,30.03,12,1,12,0.08
2013-5-28,66,54,45,47,37,30,74,54,33,30.06,30.00,12,0,12,0.39
2013-5-29,73,56,37,41,28,21,69,39,16,30.09,29.91,15,1,15,0.08
2013-5-30,67,53,42,32,24,18,56,35,21,30.30,30.09,12,1,12,0.08
2013-5-31,66,52,36,30,22,18,55,34,17,30.47,30.30,8,1,8,0.08
2013-6-1,77,56,32,31,23,18,62,32,13,30.50,30.24,8,1,8,0.08
2013-6-2,62,51,44,43,32,23,73,50,28,30.27,30.12,10,2,10,0.08
2013-6-3,74,54,43,48,34,26,75,50,19,30.33,30.18,9,1,9,0.08
2013-6-4,74,56,42,40,31,25,67,42,21,30.42,30.33,6,1,6,0.08
2013-6-5,87,64,38,39,28,18,67,32,13,30.39,30.24,10,1,10,0.08
2013-6-6,90,68,48,37,30,22,48,26,12,30.36,30.21,8,1,8,0.08
2013-6-7,90,69,50,42,32,25,50,29,12,30.27,30.15,15,2,15,0.00
2013-6-8,88,70,50,31,26,16,37,20,12,30.33,30.21,14,2,14,0.00
2013-6-9,89,68,47,34,28,18,49,26,13,30.30,30.09,19,2,19,0.00
2013-6-10,85,64,41,46,27,22,60,28,13,30.21,30.03,8,0,8,0.00
2013-6-11,85,66,46,36,28,23,49,26,13,30.27,30.09,15,1,15,0.00
2013-6-12,74,61,46,36,30,24,56,32,22,30.30,30.21,8,1,8,0.00
2013-6-13,69,53,41,50,38,26,77,59,25,30.36,30.24,8,1,8,0.35
2013-6-14,69,54,42,37,29,22,69,43,20,30.42,30.33,12,1,12,0.00
2013-6-15,84,60,35,38,27,20,67,34,13,30.42,21.41,7,1,7,0.00
2013-6-16,85,64,40,34,27,22,52,28,13,30.00,21.41,5,0,5,0.00
2013-6-17,93,68,46,37,31,27,52,29,12,30.00,0.00,5,0,5,0.00
2013-6-18,86,67,48,39,34,30,55,31,16,30.77,0.00,8,1,8,0.00
2013-6-19,65,55,49,46,38,30,73,54,34,29.82,29.67,10,1,10,0.24
2013-6-20,71,54,48,37,28,24,60,37,22,29.99,29.79,14,2,14,0.00
2013-6-21,73,56,38,42,29,23,68,40,19,30.02,29.93,17,1,17,0.00
2013-6-22,75,58,43,44,30,21,67,37,18,30.02,29.93,8,1,8,0.00
2013-6-23,81,61,38,40,30,24,65,35,14,29.96,29.70,6,0,6,0.00
2013-6-24,78,62,54,51,40,33,71,47,23,29.73,29.64,16,0,16,0.08
2013-6-25,78,63,52,48,39,30,72,45,20,29.91,29.73,17,1,17,0.04
2013-6-26,77,62,52,50,41,33,71,48,24,30.11,29.91,8,1,8,0.00
2013-6-27,78,71,57,47,41,39,52,35,26,30.17,30.11,5,1,5,0.00
2013-7-1,100,79,66,43,35,29,35,22,10,30.05,29.99,4,0,4,0.00
2013-7-2,101,78,58,49,40,33,48,28,10,30.11,29.96,8,1,8,0.00
2013-7-3,99,80,61,47,39,27,50,27,10,30.02,29.91,13,2,13,0.00
2013-7-4,97,75,57,41,35,23,51,27,11,29.96,29.79,6,1,9,0.00
2013-7-5,92,72,51,38,30,21,46,23,12,29.88,29.73,11,1,11,0.00
2013-7-6,88,69,48,38,30,21,50,26,13,29.93,29.76,7,0,7,0.00
2013-7-7,91,70,47,42,31,25,49,26,12,29.91,29.79,6,0,6,0.00
2013-7-8,90,70,52,40,33,24,48,27,12,30.08,29.85,13,1,13,0.00
2013-7-9,90,70,48,43,33,26,54,29,12,30.14,30.02,5,0,5,0.00
2013-7-10,103,74,49,37,31,25,46,23,9,30.05,29.79,15,1,15,0.00
2013-7-11,90,72,56,39,34,25,47,27,12,29.91,29.79,20,2,20,0.00
2013-7-12,91,67,47,44,34,26,63,34,12,29.91,29.79,16,1,16,0.00
2013-7-13,84,68,48,36,28,14,49,25,13,30.05,29.88,7,1,7,0.00
2013-7-14,90,67,44,32,27,22,44,25,12,30.11,29.93,7,1,7,0.00
2013-7-15,99,75,49,37,31,21,46,23,10,29.96,29.85,14,1,14,0.00
2013-7-16,93,70,50,45,35,22,46,29,14,30.05,29.91,14,1,14,0.00
2013-7-17,99,78,58,51,40,30,57,30,11,30.08,29.93,12,1,12,0.00
2013-7-18,96,75,53,43,33,23,49,25,11,30.14,30.02,8,1,8,0.00
2013-7-19,96,72,50,33,28,20,40,22,11,30.11,29.93,8,1,8,0.00
2013-7-20,98,74,50,35,28,18,38,20,11,29.99,29.85,9,1,9,0.00
2013-7-21,99,74,49,35,26,16,38,19,10,29.93,29.82,10,1,10,0.00
2013-7-22,97,74,49,34,26,16,37,19,11,29.96,29.85,13,2,13,0.00
2013-7-23,97,74,50,33,27,15,36,19,11,30.08,29.96,6,1,6,0.00
2013-7-24,98,74,50,35,29,23,39,21,11,30.02,29.91,5,0,5,0.00
2013-7-25,98,75,51,35,27,20,34,19,11,30.08,29.96,6,1,6,0.00
2013-7-26,96,69,50,34,27,20,38,23,11,30.11,29.99,14,1,14,0.00
2013-7-27,97,75,56,36,28,19,35,20,11,29.99,29.85,13,1,13,0.00
2013-7-28,91,71,48,34,26,17,38,20,12,29.91,29.79,8,1,8,0.00
2013-7-29,91,67,44,32,25,16,43,22,11,29.93,29.85,8,1,8,0.00
2013-7-30,85,68,52,31,25,18,32,21,13,30.05,29.93,6,0,6,0.00
2013-7-31,78,70,61,32,28,24,29,21,15,29.96,29.96,4,0,4,0.00
2013-8-1,61,59,55,52,43,34,71,57,39,30.02,29.93,11,1,11,0.08
2013-8-2,79,61,46,48,36,29,73,44,17,30.05,29.91,10,1,10,0.04
2013-8-3,82,63,43,47,35,31,71,40,19,30.08,29.99,6,0,6,0.04
2013-8-4,90,68,46,43,33,20,65,33,12,30.05,29.93,7,0,7,0.04
2013-8-5,90,68,50,38,31,23,46,28,12,30.02,29.88,8,0,8,0.04
2013-8-6,92,69,49,37,32,27,50,29,12,30.02,29.93,8,1,8,0.00
2013-8-7,96,71,48,44,32,27,51,27,11,29.99,29.88,6,0,6,0.00
2013-8-8,92,70,49,43,29,25,43,24,12,29.99,29.88,6,1,6,0.00
2013-8-9,90,69,56,46,38,30,57,35,15,30.02,29.88,22,1,22,0.12
2013-8-10,90,68,49,45,37,26,68,37,14,30.02,29.91,15,1,15,0.00
2013-8-11,85,66,52,42,35,29,50,33,18,30.02,29.93,9,0,9,0.00
2013-8-12,89,68,50,40,32,25,54,30,13,30.05,29.93,8,1,8,0.00
2013-8-13,88,71,54,38,32,28,44,27,13,30.11,29.99,6,1,6,0.00
2013-8-14,92,69,49,36,32,25,50,28,12,30.05,29.93,6,0,6,0.00
2013-8-15,102,71,51,36,31,27,40,26,10,29.99,29.88,11,1,13,0.00
2013-8-16,96,79,63,35,31,25,33,19,11,29.99,29.91,6,1,6,0.00
2013-8-17,94,73,52,39,34,28,53,27,11,30.08,29.91,6,0,6,0.00
2013-8-18,97,74,53,39,32,23,48,24,11,30.05,29.96,10,1,10,0.00
2013-8-19,98,73,49,39,30,17,50,24,11,30.05,29.93,15,1,15,0.00
2013-8-20,94,71,50,36,29,18,46,24,11,30.02,29.91,9,1,9,0.00
2013-8-21,89,66,46,32,26,20,42,24,13,30.08,29.96,5,1,5,0.00
2013-8-22,88,68,52,34,29,23,38,24,13,30.02,29.85,13,0,13,0.00
2013-8-23,93,73,56,45,35,27,53,27,11,29.93,29.76,13,1,13,0.00
2013-8-24,92,71,51,41,33,24,56,29,12,29.93,29.79,18,1,18,0.00
2013-8-25,96,71,59,41,33,26,50,27,11,29.96,29.79,31,1,31,0.00
2013-8-26,87,67,49,52,38,30,70,39,16,30.02,29.88,6,0,6,0.00
2013-8-27,91,67,48,42,32,27,51,30,12,29.99,29.88,10,1,10,0.00
2013-8-28,88,67,53,51,38,34,66,38,18,30.02,29.91,13,2,13,0.00
2013-8-29,94,69,52,59,41,28,72,42,13,30.05,29.88,24,0,24,0.04
2013-8-30,89,68,49,53,37,27,72,39,13,30.08,29.99,10,1,10,0.00
2013-8-31,89,68,48,40,32,26,56,31,13,30.11,29.96,5,0,5,0.00
2013-9-1,96,70,48,36,31,27,50,27,11,29.99,29.85,5,1,5,0.00
2013-9-2,87,69,53,36,31,26,41,25,13,29.96,29.88,6,0,6,0.00
2013-9-3,82,68,58,46,39,33,47,35,20,30.05,29.96,8,0,8,0.00
2013-9-4,96,72,53,50,38,28,65,34,11,30.08,29.96,5,0,5,0.00
2013-9-5,86,67,58,54,44,36,73,46,21,30.05,29.96,9,1,9,0.08
2013-9-6,83,67,52,61,46,36,78,52,22,30.02,29.93,6,0,6,0.00
2013-9-7,87,68,49,49,36,27,68,36,13,30.08,29.91,6,0,6,0.00
2013-9-8,76,60,47,42,33,25,63,39,22,29.99,29.93,10,0,10,0.00
2013-9-9,85,63,51,45,35,29,62,37,16,30.02,29.96,9,1,9,0.00
2013-9-10,90,65,45,43,34,27,67,38,13,30.08,29.96,6,1,6,0.00
2013-9-11,91,79,59,39,31,22,42,18,12,30.14,30.02,5,1,8,0.00
2013-9-12,93,70,49,41,33,28,52,29,12,30.11,29.93,10,1,10,0.00
2013-9-13,94,73,56,43,36,29,49,29,11,29.93,29.79,15,2,15,0.00
2013-9-14,88,69,55,42,35,25,53,32,14,29.99,29.88,8,1,8,0.00
2013-9-15,92,67,48,46,36,30,64,36,14,29.99,29.82,15,1,15,0.00
2013-9-16,92,69,53,57,39,23,73,40,12,29.91,29.73,13,1,13,0.00
2013-9-17,68,55,45,46,38,30,69,54,35,29.85,29.61,9,0,9,0.00
2013-9-18,69,56,47,32,26,21,47,32,22,30.05,29.73,10,1,10,0.00
2013-9-19,76,55,38,32,25,18,60,35,15,30.14,29.99,8,1,8,0.00
2013-9-20,87,56,34,35,24,17,64,35,12,30.02,29.70,8,0,8,0.00
2013-9-21,75,56,39,29,23,19,47,30,15,29.73,29.64,6,0,7,0.00
2013-9-22,67,54,48,49,38,29,75,58,35,29.73,29.67,7,1,7,0.04
2013-9-23,67,52,42,48,31,22,74,48,20,29.93,29.73,6,1,10,0.04
2013-9-24,49,45,41,42,36,25,76,69,52,29.93,29.76,6,0,6,0.20
2013-9-25,54,46,43,40,36,27,80,71,39,29.76,29.67,5,0,5,0.24
2013-9-26,54,46,41,36,26,18,77,49,27,29.96,29.76,7,0,7,0.20
2013-9-27,58,51,42,31,23,19,62,34,25,29.99,29.91,11,3,11,0.08
2013-9-28,66,53,46,39,29,23,63,40,26,29.91,29.76,15,5,15,0.08
2013-9-29,56,48,43,38,32,29,71,55,38,29.79,29.58,14,4,14,0.20
2013-9-30,62,48,39,36,26,17,68,46,21,29.91,29.49,37,3,37,0.24
2013-10-1,63,45,34,34,25,18,73,49,24,30.02,29.91,9,1,9,0.08
2013-10-2,60,44,30,36,22,14,73,46,20,30.08,29.88,6,1,6,0.08
2013-10-3,49,44,38,23,18,16,54,36,30,30.23,29.88,11,1,11,0.08
2013-10-4,61,46,30,26,17,10,57,33,19,30.38,30.29,6,1,6,0.00
2013-10-5,70,44,27,25,18,12,66,39,14,30.32,30.20,6,1,6,0.00
2013-10-6,78,48,29,29,20,15,63,37,13,30.23,29.96,8,0,8,0.00
2013-10-7,74,55,38,33,22,16,60,29,14,29.96,29.76,12,1,12,0.00
2013-10-8,60,47,37,28,21,18,51,37,24,29.91,29.82,10,1,10,0.00
2013-10-9,62,48,33,39,23,17,70,40,24,29.96,29.82,6,1,6,0.00
2013-10-10,56,40,26,33,22,17,69,50,30,29.88,29.79,5,0,5,0.00
2013-10-11,62,46,30,29,18,8,51,35,19,30.02,29.88,11,1,11,0.00
2013-10-12,55,39,28,24,18,12,62,44,26,30.02,29.93,5,0,5,0.00
2013-10-13,58,43,29,32,20,15,65,41,26,30.11,30.02,5,0,5,0.00
2013-10-14,58,46,34,28,18,12,50,33,19,30.29,30.11,5,0,5,0.00
2013-10-15,62,39,23,27,16,12,64,42,19,30.29,30.08,6,0,6,0.00
2013-10-16,57,38,26,22,17,12,58,44,26,30.11,30.02,4,0,4,0.00
2013-10-17,49,39,28,33,22,16,64,49,37,30.17,30.05,4,0,4,0.00
2013-10-18,64,39,22,30,18,13,72,47,21,30.20,30.05,6,0,6,0.00
2013-10-19,69,46,25,26,16,6,59,34,16,30.08,29.93,6,0,7,0.00
2013-10-20,69,49,37,24,17,8,48,30,17,30.08,29.99,8,1,8,0.00
2013-10-21,73,46,30,32,23,19,68,44,19,30.17,30.08,6,1,6,0.00
2013-10-22,69,44,28,34,22,17,70,47,22,30.17,30.05,5,0,5,0.00
2013-10-23,67,38,27,34,19,14,68,48,17,30.14,30.05,4,0,4,0.00
2013-10-24,65,40,25,29,19,13,63,44,18,30.14,30.02,5,0,5,0.00
2013-10-25,66,42,25,27,19,14,67,44,18,30.20,30.08,5,0,5,0.00
2013-10-26,65,40,25,30,19,13,67,45,20,30.23,30.02,7,0,7,0.00
2013-10-27,56,42,26,26,17,9,59,37,25,30.02,29.67,10,1,10,0.00
2013-10-28,39,33,25,10,5,0,32,30,29,29.96,29.91,11,2,11,0.00
2013-10-29,47,28,14,13,5,-2,54,38,24,29.96,29.85,6,0,6,0.00
2013-10-30,59,37,20,22,13,5,56,39,19,29.96,29.88,8,1,8,0.00
2013-10-31,57,42,31,34,22,8,74,48,27,30.05,29.91,12,1,12,0.04
2013-11-1,60,43,33,43,26,15,78,57,22,30.14,30.02,10,1,10,0.04
2013-11-2,61,41,29,38,22,14,72,51,19,30.02,29.61,17,3,17,0.04
2013-11-3,49,36,26,18,13,8,58,40,24,29.88,29.73,13,2,13,0.00
2013-11-4,46,31,22,19,12,6,61,46,28,30.02,29.85,10,2,10,0.00
2013-11-5,39,32,21,20,10,3,59,42,26,30.05,29.99,15,3,15,0.00
2013-11-6,54,41,29,29,18,11,67,42,20,30.20,29.99,10,1,10,0.00
2013-11-7,52,41,34,35,26,17,72,55,38,30.17,29.70,15,3,15,0.16
2013-11-8,48,40,34,25,22,18,56,48,37,29.99,29.82,12,4,12,0.00
2013-11-9,53,40,28,28,19,16,66,44,27,30.11,30.05,6,0,6,0.00
2013-11-10,54,39,32,29,23,19,73,54,33,30.08,30.02,6,0,6,0.00
2013-11-11,55,39,28,38,24,18,73,58,30,30.29,30.08,6,0,6,0.00
2013-11-12,46,36,29,32,25,21,73,64,50,30.23,30.17,5,0,5,0.00
2013-11-13,60,43,34,34,23,12,73,49,22,30.20,30.14,10,1,15,0.00
2013-11-14,47,35,26,26,16,11,61,47,30,30.14,29.79,6,1,6,0.00
2013-11-15,44,39,34,16,12,9,43,33,28,29.79,29.37,20,3,20,0.00
2013-11-16,45,35,30,31,18,12,70,52,33,29.58,29.26,14,4,14,0.08
2013-11-17,39,35,30,20,16,12,63,47,34,29.91,29.58,18,4,18,0.00
2013-11-18,53,39,31,19,14,9,46,35,23,29.91,29.70,15,5,15,0.00
2013-11-19,52,45,39,32,24,18,71,44,32,29.70,29.61,14,5,14,0.08
2013-11-20,44,36,25,31,12,-2,66,38,21,30.14,29.64,12,3,12,0.00
2013-11-21,39,21,11,7,-1,-7,55,38,21,30.44,30.14,6,1,6,0.00
2013-11-22,36,19,8,10,0,-9,59,44,30,30.50,30.41,4,0,5,0.00
2013-11-23,36,19,8,12,2,-5,62,48,31,30.44,30.17,5,0,5,0.00
2013-11-24,40,23,11,17,6,-2,64,49,31,30.17,30.08,6,0,6,0.00
2013-11-25,43,28,16,22,10,5,68,50,30,30.26,30.14,6,0,6,0.00
2013-11-26,42,28,17,24,12,7,66,52,34,30.26,30.05,5,0,5,0.00
2013-11-27,45,28,19,23,12,8,68,54,31,30.05,29.99,5,0,5,0.00
2013-11-28,40,24,14,21,10,5,67,57,40,30.05,29.99,6,0,6,0.00
2013-11-29,42,27,14,23,13,5,69,57,36,30.11,30.02,6,0,6,0.00
2013-11-30,48,38,32,26,20,16,55,48,37,30.11,30.05,7,0,7,0.00
2013-12-1,42,40,39,34,30,21,77,70,44,30.05,29.64,15,4,15,0.35
2013-12-2,43,34,23,34,24,9,77,65,45,29.73,29.52,16,2,16,0.31
2013-12-3,23,15,5,9,-8,-18,53,35,30,30.02,29.73,0,0,0,0.00
2013-12-4,19,7,-2,-6,-17,-26,35,31,28,30.08,30.02,0,0,0,0.00
2013-12-5,14,2,-6,-7,-20,-30,37,33,29,30.05,29.99,0,0,0,0.00
2013-12-6,8,2,-5,-13,-19,-25,36,36,36,30.11,30.02,0,0,0,0.00
2013-12-7,9,-4,-12,-13,-24,-31,36,36,36,30.05,29.93,0,0,0,0.00
2013-12-8,5,-5,-13,-16,-25,-32,36,36,36,30.17,30.02,0,0,0,0.00
2013-12-9,19,6,-9,6,-13,-29,56,41,36,30.20,30.05,0,0,0,0.00
2013-12-10,37,24,15,9,4,1,57,43,30,30.20,30.02,6,0,6,0.00
2013-12-11,38,24,11,17,6,-2,59,47,30,30.23,30.14,8,1,8,0.00
2013-12-12,53,31,20,16,9,2,55,40,21,30.17,29.96,15,3,15,0.00
2013-12-13,49,33,25,22,16,11,65,51,29,30.20,29.96,8,1,8,0.00
2013-12-14,45,38,30,24,18,10,69,45,31,30.23,30.11,15,3,15,0.00
2013-12-15,58,44,30,21,14,8,43,30,22,30.17,30.08,18,3,18,0.00
2013-12-16,55,40,25,19,12,4,47,33,18,30.23,30.11,10,2,10,0.00
2013-12-17,62,40,24,17,11,7,48,31,16,30.23,29.85,15,3,15,0.00
2013-12-18,52,44,33,18,11,4,52,26,19,29.85,29.70,20,3,20,0.00
2013-12-19,34,27,18,23,10,0,71,50,34,29.96,29.73,10,1,10,0.00
2013-12-20,35,23,12,20,8,1,70,53,25,29.91,29.52,10,2,11,0.00
2013-12-21,41,30,24,26,17,14,70,59,40,29.91,29.55,6,0,6,0.04
2013-12-22,41,32,28,24,19,15,65,57,42,30.11,29.88,5,0,5,0.00
2013-12-23,48,40,34,33,24,14,74,53,39,30.11,29.85,17,4,17,0.20
2013-12-24,46,34,22,17,10,4,54,38,28,30.32,30.08,11,2,11,0.00
2013-12-25,39,26,16,17,8,3,59,46,31,30.35,30.20,8,2,8,0.00
2013-12-26,51,34,24,20,13,8,56,44,28,30.23,30.11,8,1,8,0.00
2013-12-27,50,36,22,18,14,8,62,40,21,30.14,29.91,24,3,24,0.00
2013-12-28,47,37,24,15,9,4,42,32,22,30.23,29.93,13,2,15,0.00
2013-12-29,40,30,20,13,8,3,52,39,29,30.23,30.05,10,2,10,0.00
2013-12-30,48,37,26,22,16,11,56,43,29,30.11,29.96,11,2,11,0.00
2013-12-31,46,40,34,24,19,15,52,42,32,30.11,29.91,11,2,11,0.00
2014-1-1,50,34,25,21,12,5,52,40,24,30.23,30.11,8,1,8,0.00
2014-1-2,54,39,26,17,14,10,53,37,21,30.17,29.73,20,3,20,0.00